,,PA_Meas_PMT16A,,PR_Meas_QMR101_102,,RH_Meas_QMH101,,SR_Meas_QMS101,,TA_Meas_QMH101,,GenWind,,GenWind,
time,status,PA,status,PR,status,RH,status,SR,status,TA,status,DirAvg,status,SpdAvg,
2014-12-31, 00:00:04,VALID,917.281,VALID,0,VALID,97.1147,VALID,0,VALID,19.9953,VALID,16,VALID,0,
2014-12-31, 00:01:04,VALID,917.3,VALID,0,VALID,97.1223,VALID,0,VALID,19.9953,VALID,16,VALID,0,
2014-12-31, 00:02:04,VALID,917.277,VALID,0,VALID,97.1071,VALID,0,VALID,19.9968,VALID,16,VALID,0,
2014-12-31, 00:03:04,VALID,917.305,VALID,0,VALID,97.0918,VALID,0,VALID,19.9743,VALID,16,VALID,0,
2014-12-31, 00:04:04,VALID,917.278,VALID,0,VALID,97.0994,VALID,0,VALID,19.9953,VALID,16,VALID,0,
2014-12-31, 00:05:04,VALID,917.318,VALID,0,VALID,97.0308,VALID,0.107441,VALID,19.9743,VALID,16,VALID,0,
2014-12-31, 00:06:04,VALID,917.305,VALID,0,VALID,97.008,VALID,0,VALID,20.0148,VALID,16,VALID,0,
2014-12-31, 00:07:04,VALID,917.314,VALID,0,VALID,96.9698,VALID,0,VALID,20.0343,VALID,16,VALID,0,
2014-12-31, 00:08:04,VALID,917.319,VALID,0,VALID,96.9698,VALID,0,VALID,20.0328,VALID,17,VALID,0,
2014-12-31, 00:09:04,VALID,917.311,VALID,0,VALID,96.9241,VALID,0,VALID,20.0538,VALID,17,VALID,0,
2014-12-31, 00:10:04,VALID,917.316,VALID,0,VALID,96.8936,VALID,0,VALID,20.0928,VALID,38,VALID,0,
2014-12-31, 00:11:04,VALID,917.302,VALID,0,VALID,96.8631,VALID,0.107441,VALID,20.0928,VALID,38,VALID,0,
2014-12-31, 00:12:04,VALID,917.296,VALID,0,VALID,96.8326,VALID,0,VALID,20.0928,VALID,38,VALID,0,
2014-12-31, 00:13:04,VALID,917.307,VALID,0,VALID,96.7793,VALID,0,VALID,20.0928,VALID,38,VALID,0,
2014-12-31, 00:14:04,VALID,917.302,VALID,0,VALID,96.7183,VALID,0,VALID,20.0733,VALID,38,VALID,0,
2014-12-31, 00:15:04,VALID,917.285,VALID,0,VALID,96.703,VALID,0,VALID,20.0733,VALID,38,VALID,0,
2014-12-31, 00:16:04,VALID,917.279,VALID,0,VALID,96.7107,VALID,0,VALID,20.0538,VALID,38,VALID,0,
2014-12-31, 00:17:04,VALID,917.306,VALID,0,VALID,96.7183,VALID,0,VALID,20.0148,VALID,38,VALID,0,
2014-12-31, 00:18:04,VALID,917.311,VALID,0,VALID,96.7488,VALID,0,VALID,20.0148,VALID,38,VALID,0,
2014-12-31, 00:19:04,VALID,917.299,VALID,0,VALID,96.7945,VALID,0,VALID,19.9953,VALID,38,VALID,0,
2014-12-31, 00:20:04,VALID,917.268,VALID,0,VALID,96.8555,VALID,0,VALID,19.9953,VALID,38,VALID,0,
2014-12-31, 00:21:04,VALID,917.278,VALID,0,VALID,96.9394,VALID,0,VALID,19.9953,VALID,38,VALID,0,
2014-12-31, 00:22:04,VALID,917.23,VALID,0,VALID,97.008,VALID,0.107441,VALID,19.9953,VALID,38,VALID,0,
2014-12-31, 00:23:04,VALID,917.242,VALID,0,VALID,97.0461,VALID,0,VALID,19.9758,VALID,38,VALID,0,
2014-12-31, 00:24:04,VALID,917.256,VALID,0,VALID,97.1223,VALID,0,VALID,19.9758,VALID,38,VALID,0,
2014-12-31, 00:25:04,VALID,917.263,VALID,0,VALID,97.1528,VALID,0,VALID,19.9968,VALID,38,VALID,0,
2014-12-31, 00:26:04,VALID,917.258,VALID,0,VALID,97.2138,VALID,0,VALID,20.0343,VALID,38,VALID,0,
2014-12-31, 00:27:04,VALID,917.227,VALID,0,VALID,97.2595,VALID,0,VALID,20.0148,VALID,37,VALID,0,
2014-12-31, 00:28:04,VALID,917.229,VALID,0,VALID,97.2977,VALID,0,VALID,20.0538,VALID,38,VALID,0,
2014-12-31, 00:29:04,VALID,917.19,VALID,0,VALID,97.3434,VALID,0,VALID,20.0928,VALID,38,VALID,0,
2014-12-31, 00:30:04,VALID,917.21,VALID,0,VALID,97.3968,VALID,0,VALID,20.0928,VALID,38,VALID,0,
2014-12-31, 00:31:04,VALID,917.179,VALID,0,VALID,97.4196,VALID,0,VALID,20.1123,VALID,38,VALID,0,
2014-12-31, 00:32:04,VALID,917.189,VALID,0,VALID,97.4196,VALID,0,VALID,20.1513,VALID,38,VALID,0,
2014-12-31, 00:33:04,VALID,917.171,VALID,0,VALID,97.4273,VALID,0,VALID,20.1513,VALID,38,VALID,0,
2014-12-31, 00:34:04,VALID,917.183,VALID,0,VALID,97.4501,VALID,0,VALID,20.1708,VALID,38,VALID,0,
2014-12-31, 00:35:04,VALID,917.173,VALID,0,VALID,97.4425,VALID,0,VALID,20.1903,VALID,38,VALID,0,
2014-12-31, 00:36:04,VALID,917.138,VALID,0,VALID,97.4501,VALID,0,VALID,20.2098,VALID,38,VALID,0,
2014-12-31, 00:37:04,VALID,917.112,VALID,0,VALID,97.4806,VALID,0,VALID,20.2098,VALID,38,VALID,0,
2014-12-31, 00:38:04,VALID,917.123,VALID,0,VALID,97.473,VALID,0,VALID,20.2098,VALID,38,VALID,0,
2014-12-31, 00:39:04,VALID,917.1,VALID,0,VALID,97.4882,VALID,0,VALID,20.2098,VALID,38,VALID,0,
2014-12-31, 00:40:04,VALID,917.126,VALID,0,VALID,97.4959,VALID,0,VALID,20.2098,VALID,38,VALID,0,
2014-12-31, 00:41:04,VALID,917.118,VALID,0,VALID,97.5035,VALID,0,VALID,20.2098,VALID,38,VALID,0,
2014-12-31, 00:42:04,VALID,917.131,VALID,0,VALID,97.4882,VALID,0,VALID,20.2098,VALID,38,VALID,0,
2014-12-31, 00:43:04,VALID,917.152,VALID,0,VALID,97.5111,VALID,0,VALID,20.2098,VALID,38,VALID,0,
2014-12-31, 00:44:04,VALID,917.155,VALID,0,VALID,97.5111,VALID,0,VALID,20.2098,VALID,38,VALID,0,
2014-12-31, 00:45:04,VALID,917.147,VALID,0,VALID,97.5187,VALID,0,VALID,20.2098,VALID,38,VALID,0,
2014-12-31, 00:46:04,VALID,917.18,VALID,0,VALID,97.5111,VALID,0.107441,VALID,20.2489,VALID,38,VALID,0,
2014-12-31, 00:47:04,VALID,917.141,VALID,0,VALID,97.5111,VALID,0,VALID,20.2489,VALID,38,VALID,0,
2014-12-31, 00:48:04,VALID,917.159,VALID,0,VALID,97.5111,VALID,0,VALID,20.2489,VALID,38,VALID,0,
2014-12-31, 00:49:04,VALID,917.147,VALID,0,VALID,97.5264,VALID,0,VALID,20.2489,VALID,38,VALID,0,
2014-12-31, 00:50:04,VALID,917.144,VALID,0,VALID,97.5111,VALID,0,VALID,20.2293,VALID,38,VALID,0,
2014-12-31, 00:51:04,VALID,917.118,VALID,0,VALID,97.5035,VALID,0,VALID,20.2489,VALID,38,VALID,0,
2014-12-31, 00:52:04,VALID,917.109,VALID,0,VALID,97.5035,VALID,0,VALID,20.2684,VALID,38,VALID,0,
2014-12-31, 00:53:04,VALID,917.118,VALID,0,VALID,97.4959,VALID,0,VALID,20.2879,VALID,38,VALID,0,
2014-12-31, 00:54:04,VALID,917.102,VALID,0,VALID,97.5264,VALID,0.107441,VALID,20.3074,VALID,38,VALID,0,
2014-12-31, 00:55:04,VALID,917.126,VALID,0,VALID,97.5264,VALID,0,VALID,20.3269,VALID,38,VALID,0,
2014-12-31, 00:56:04,VALID,917.095,VALID,0,VALID,97.5187,VALID,0,VALID,20.3074,VALID,38,VALID,0,
2014-12-31, 00:57:04,VALID,917.12,VALID,0,VALID,97.4806,VALID,0,VALID,20.2684,VALID,38,VALID,0,
2014-12-31, 00:58:04,VALID,917.047,VALID,0,VALID,97.4806,VALID,0,VALID,20.2489,VALID,38,VALID,0,
2014-12-31, 00:59:04,VALID,917.073,VALID,0,VALID,97.473,VALID,0,VALID,20.2293,VALID,38,VALID,0,
2014-12-31, 01:00:04,VALID,917.04,VALID,0,VALID,97.4425,VALID,0,VALID,20.2293,VALID,38,VALID,0,
2014-12-31, 01:01:04,VALID,917.041,VALID,0,VALID,97.4349,VALID,0,VALID,20.2489,VALID,38,VALID,0,
2014-12-31, 01:02:04,VALID,917.024,VALID,0,VALID,97.4577,VALID,0,VALID,20.2083,VALID,38,VALID,0,
2014-12-31, 01:03:04,VALID,917.013,VALID,0,VALID,97.4577,VALID,0,VALID,20.2489,VALID,38,VALID,0,
2014-12-31, 01:04:04,VALID,916.998,VALID,0,VALID,97.473,VALID,0.107441,VALID,20.2684,VALID,38,VALID,0,
2014-12-31, 01:05:04,VALID,916.99,VALID,0,VALID,97.4806,VALID,0,VALID,20.2684,VALID,38,VALID,0,
2014-12-31, 01:06:04,VALID,916.968,VALID,0,VALID,97.4882,VALID,0,VALID,20.2879,VALID,38,VALID,0,
2014-12-31, 01:07:04,VALID,916.955,VALID,0,VALID,97.4806,VALID,0,VALID,20.3089,VALID,38,VALID,0,
2014-12-31, 01:08:04,VALID,916.944,VALID,0,VALID,97.4882,VALID,0,VALID,20.3074,VALID,38,VALID,0,
2014-12-31, 01:09:04,VALID,916.953,VALID,0,VALID,97.4806,VALID,0,VALID,20.3269,VALID,38,VALID,0,
2014-12-31, 01:10:04,VALID,916.932,VALID,0,VALID,97.4654,VALID,0,VALID,20.3269,VALID,38,VALID,0,
2014-12-31, 01:11:04,VALID,916.916,VALID,0,VALID,97.4577,VALID,0,VALID,20.3269,VALID,38,VALID,0,
2014-12-31, 01:12:04,VALID,916.939,VALID,0,VALID,97.4501,VALID,0,VALID,20.3464,VALID,38,VALID,0,
2014-12-31, 01:13:04,VALID,916.919,VALID,0,VALID,97.4044,VALID,0,VALID,20.3464,VALID,38,VALID,0,
2014-12-31, 01:14:04,VALID,916.938,VALID,0,VALID,97.4044,VALID,0,VALID,20.3464,VALID,38,VALID,0,
2014-12-31, 01:15:04,VALID,916.909,VALID,0,VALID,97.3663,VALID,0,VALID,20.3659,VALID,38,VALID,0,
2014-12-31, 01:16:04,VALID,916.896,VALID,0,VALID,97.3205,VALID,0,VALID,20.3659,VALID,38,VALID,0,
2014-12-31, 01:17:04,VALID,916.892,VALID,0,VALID,97.3205,VALID,0,VALID,20.3269,VALID,38,VALID,0,
2014-12-31, 01:18:04,VALID,916.899,VALID,0,VALID,97.2824,VALID,0,VALID,20.3269,VALID,38,VALID,0,
2014-12-31, 01:19:04,VALID,916.89,VALID,0,VALID,97.2519,VALID,0,VALID,20.3074,VALID,38,VALID,0,
2014-12-31, 01:20:04,VALID,916.873,VALID,0,VALID,97.2367,VALID,0,VALID,20.2879,VALID,38,VALID,0,
2014-12-31, 01:21:04,VALID,916.876,VALID,0,VALID,97.1909,VALID,0,VALID,20.2489,VALID,38,VALID,0,
2014-12-31, 01:22:04,VALID,916.857,VALID,0,VALID,97.1909,VALID,0,VALID,20.2293,VALID,38,VALID,0,
2014-12-31, 01:23:04,VALID,916.858,VALID,0,VALID,97.1681,VALID,0,VALID,20.2293,VALID,38,VALID,0,
2014-12-31, 01:24:04,VALID,916.881,VALID,0,VALID,97.1986,VALID,0,VALID,20.2293,VALID,38,VALID,0,
2014-12-31, 01:25:04,VALID,916.842,VALID,0,VALID,97.2214,VALID,0,VALID,20.2098,VALID,38,VALID,0,
2014-12-31, 01:26:04,VALID,916.841,VALID,0,VALID,97.2138,VALID,0,VALID,20.2293,VALID,38,VALID,0,
2014-12-31, 01:27:04,VALID,916.833,VALID,0,VALID,97.2367,VALID,0,VALID,20.2489,VALID,38,VALID,0,
2014-12-31, 01:28:04,VALID,916.82,VALID,0,VALID,97.2443,VALID,0,VALID,20.2684,VALID,38,VALID,0,
2014-12-31, 01:29:04,VALID,916.813,VALID,0,VALID,97.2748,VALID,0,VALID,20.2668,VALID,38,VALID,0,
2014-12-31, 01:30:04,VALID,916.781,VALID,0,VALID,97.2595,VALID,0,VALID,20.2879,VALID,38,VALID,0,
2014-12-31, 01:31:04,VALID,916.759,VALID,0,VALID,97.2748,VALID,0,VALID,20.2879,VALID,38,VALID,0,
2014-12-31, 01:32:04,VALID,916.756,VALID,0,VALID,97.2672,VALID,0,VALID,20.3074,VALID,38,VALID,0,
2014-12-31, 01:33:04,VALID,916.721,VALID,0,VALID,97.2595,VALID,0,VALID,20.3269,VALID,38,VALID,0,
2014-12-31, 01:34:04,VALID,916.724,VALID,0,VALID,97.2443,VALID,0,VALID,20.3674,VALID,38,VALID,0,
2014-12-31, 01:35:04,VALID,916.701,VALID,0,VALID,97.2138,VALID,0,VALID,20.3269,VALID,38,VALID,0,
2014-12-31, 01:36:04,VALID,916.697,VALID,0,VALID,97.2062,VALID,0,VALID,20.3269,VALID,38,VALID,0,
2014-12-31, 01:37:04,VALID,916.655,VALID,0,VALID,97.1909,VALID,0,VALID,20.3074,VALID,38,VALID,0,
2014-12-31, 01:38:04,VALID,916.68,VALID,0,VALID,97.1299,VALID,0,VALID,20.2489,VALID,38,VALID,0,
2014-12-31, 01:39:04,VALID,916.651,VALID,0,VALID,97.0308,VALID,0,VALID,20.2293,VALID,38,VALID,0,
2014-12-31, 01:40:04,VALID,916.622,VALID,0,VALID,97.0156,VALID,0,VALID,20.1903,VALID,38,VALID,0,
2014-12-31, 01:41:04,VALID,916.633,VALID,0,VALID,97.008,VALID,0,VALID,20.1708,VALID,38,VALID,0,
2014-12-31, 01:42:04,VALID,916.627,VALID,0,VALID,97.0232,VALID,0,VALID,20.1903,VALID,38,VALID,0,
2014-12-31, 01:43:04,VALID,916.61,VALID,0,VALID,97.0156,VALID,0,VALID,20.1903,VALID,38,VALID,0,
2014-12-31, 01:44:04,VALID,916.605,VALID,0,VALID,97.0308,VALID,0,VALID,20.1708,VALID,38,VALID,0,
2014-12-31, 01:45:04,VALID,916.585,VALID,0,VALID,97.0385,VALID,0,VALID,20.1708,VALID,38,VALID,0,
2014-12-31, 01:46:04,VALID,916.563,VALID,0,VALID,97.0461,VALID,0,VALID,20.2098,VALID,38,VALID,0,
2014-12-31, 01:47:04,VALID,916.574,VALID,0,VALID,97.0766,VALID,0,VALID,20.1903,VALID,38,VALID,0,
2014-12-31, 01:48:04,VALID,916.54,VALID,0,VALID,97.0537,VALID,0,VALID,20.1498,VALID,38,VALID,0,
2014-12-31, 01:49:04,VALID,916.55,VALID,0,VALID,97.0461,VALID,0,VALID,20.1708,VALID,38,VALID,0,
2014-12-31, 01:50:04,VALID,916.562,VALID,0,VALID,97.069,VALID,0,VALID,20.1708,VALID,38,VALID,0,
2014-12-31, 01:51:04,VALID,916.527,VALID,0,VALID,97.0613,VALID,0,VALID,20.1903,VALID,38,VALID,0,
2014-12-31, 01:52:04,VALID,916.558,VALID,0,VALID,97.0537,VALID,0,VALID,20.1708,VALID,38,VALID,0,
2014-12-31, 01:53:04,VALID,916.549,VALID,0,VALID,97.0385,VALID,0.107441,VALID,20.1708,VALID,38,VALID,0,
2014-12-31, 01:54:04,VALID,916.554,VALID,0,VALID,96.9775,VALID,0,VALID,20.1513,VALID,38,VALID,0,
2014-12-31, 01:55:04,VALID,916.538,VALID,0,VALID,96.9317,VALID,0,VALID,20.1513,VALID,38,VALID,0,
2014-12-31, 01:56:04,VALID,916.52,VALID,0,VALID,96.8707,VALID,0,VALID,20.1529,VALID,38,VALID,0,
2014-12-31, 01:57:04,VALID,916.508,VALID,0,VALID,96.8326,VALID,0,VALID,20.1123,VALID,38,VALID,0,
2014-12-31, 01:58:04,VALID,916.494,VALID,0,VALID,96.764,VALID,0,VALID,20.1724,VALID,38,VALID,0,
2014-12-31, 01:59:04,VALID,916.486,VALID,0,VALID,96.7259,VALID,0,VALID,20.1724,VALID,38,VALID,0,
2014-12-31, 02:00:04,VALID,916.47,VALID,0,VALID,96.6954,VALID,0,VALID,20.1529,VALID,38,VALID,0,
2014-12-31, 02:01:04,VALID,916.416,VALID,0,VALID,96.6192,VALID,0,VALID,20.1724,VALID,38,VALID,0,
2014-12-31, 02:02:04,VALID,916.418,VALID,0,VALID,96.5811,VALID,0,VALID,20.1513,VALID,38,VALID,0,
2014-12-31, 02:03:04,VALID,916.405,VALID,0,VALID,96.4896,VALID,0,VALID,20.1708,VALID,38,VALID,0,
2014-12-31, 02:04:04,VALID,916.368,VALID,0,VALID,96.4362,VALID,0,VALID,20.1919,VALID,38,VALID,0,
2014-12-31, 02:05:04,VALID,916.347,VALID,0,VALID,96.3524,VALID,0,VALID,20.1724,VALID,38,VALID,0,
2014-12-31, 02:06:04,VALID,916.326,VALID,0,VALID,96.2914,VALID,0,VALID,20.1903,VALID,38,VALID,0,
2014-12-31, 02:07:04,VALID,916.333,VALID,0,VALID,96.2151,VALID,0,VALID,20.1708,VALID,38,VALID,0,
2014-12-31, 02:08:04,VALID,916.307,VALID,0,VALID,96.1236,VALID,0.107441,VALID,20.1708,VALID,38,VALID,0,
2014-12-31, 02:09:04,VALID,916.289,VALID,0,VALID,96.0627,VALID,0,VALID,20.1529,VALID,38,VALID,0,
2014-12-31, 02:10:04,VALID,916.309,VALID,0,VALID,95.9864,VALID,0,VALID,20.1513,VALID,72,VALID,0,
2014-12-31, 02:11:04,VALID,916.292,VALID,0,VALID,95.9102,VALID,0,VALID,20.1318,VALID,72,VALID,0,
2014-12-31, 02:12:04,VALID,916.26,VALID,0,VALID,95.8187,VALID,0,VALID,20.1123,VALID,72,VALID,0,
2014-12-31, 02:13:04,VALID,916.225,VALID,0,VALID,95.8263,VALID,0,VALID,20.1334,VALID,72,VALID,0,
2014-12-31, 02:14:04,VALID,916.257,VALID,0,VALID,95.8721,VALID,0,VALID,20.0928,VALID,72,VALID,0,
2014-12-31, 02:15:04,VALID,916.21,VALID,0,VALID,95.895,VALID,0,VALID,20.0928,VALID,72,VALID,0,
2014-12-31, 02:16:04,VALID,916.191,VALID,0,VALID,95.9178,VALID,0,VALID,20.0928,VALID,72,VALID,0,
2014-12-31, 02:17:04,VALID,916.158,VALID,0,VALID,95.9026,VALID,0,VALID,20.0944,VALID,72,VALID,0,
2014-12-31, 02:18:04,VALID,916.138,VALID,0,VALID,95.8645,VALID,0,VALID,20.0538,VALID,72,VALID,0,
2014-12-31, 02:19:04,VALID,916.123,VALID,0,VALID,95.895,VALID,0,VALID,20.0538,VALID,73,VALID,0,
2014-12-31, 02:20:04,VALID,916.094,VALID,0,VALID,95.895,VALID,0,VALID,20.0538,VALID,141,VALID,0,
2014-12-31, 02:21:04,VALID,916.096,VALID,0,VALID,95.9026,VALID,0,VALID,20.0928,VALID,141,VALID,0,
2014-12-31, 02:22:04,VALID,916.062,VALID,0,VALID,95.895,VALID,0,VALID,20.1139,VALID,141,VALID,0,
2014-12-31, 02:23:04,VALID,916.078,VALID,0,VALID,95.8873,VALID,0,VALID,20.1139,VALID,141,VALID,0,
2014-12-31, 02:24:04,VALID,916.027,VALID,0,VALID,95.834,VALID,0,VALID,20.0928,VALID,141,VALID,0,
2014-12-31, 02:25:04,VALID,916.024,VALID,0,VALID,95.8492,VALID,0,VALID,20.0928,VALID,141,VALID,0,
2014-12-31, 02:26:04,VALID,916.043,VALID,0,VALID,95.834,VALID,0,VALID,20.0749,VALID,141,VALID,0,
2014-12-31, 02:27:04,VALID,916.058,VALID,0,VALID,95.8263,VALID,0,VALID,20.0733,VALID,141,VALID,0,
2014-12-31, 02:28:04,VALID,916.037,VALID,0,VALID,95.8568,VALID,0,VALID,20.0733,VALID,141,VALID,0,
2014-12-31, 02:29:04,VALID,916.023,VALID,0,VALID,95.8873,VALID,0,VALID,20.0928,VALID,141,VALID,0,
2014-12-31, 02:30:04,VALID,916.006,VALID,0,VALID,95.9026,VALID,0,VALID,20.0538,VALID,141,VALID,0,
2014-12-31, 02:31:04,VALID,915.96,VALID,0,VALID,95.9636,VALID,0.107441,VALID,20.0749,VALID,144,VALID,0,
2014-12-31, 02:32:04,VALID,915.964,VALID,0,VALID,95.9864,VALID,0,VALID,20.0553,VALID,160,VALID,0,
2014-12-31, 02:33:04,VALID,915.898,VALID,0,VALID,96.0474,VALID,0,VALID,20.0148,VALID,158,VALID,0,
2014-12-31, 02:34:04,VALID,915.875,VALID,0,VALID,96.116,VALID,0,VALID,20.0343,VALID,158,VALID,0,
2014-12-31, 02:35:04,VALID,915.825,VALID,0,VALID,96.1465,VALID,0,VALID,20.0538,VALID,147,VALID,0,
2014-12-31, 02:36:04,VALID,915.819,VALID,0,VALID,96.1465,VALID,0,VALID,20.0358,VALID,146,VALID,0,
2014-12-31, 02:37:04,VALID,915.811,VALID,0,VALID,96.1618,VALID,0,VALID,19.9953,VALID,146,VALID,0,
2014-12-31, 02:38:04,VALID,915.789,VALID,0,VALID,96.177,VALID,0,VALID,20.0163,VALID,146,VALID,0,
2014-12-31, 02:39:04,VALID,915.75,VALID,0,VALID,96.1999,VALID,0,VALID,19.9953,VALID,147,VALID,0,
2014-12-31, 02:40:04,VALID,915.75,VALID,0,VALID,96.2151,VALID,0,VALID,19.9968,VALID,146,VALID,0,
2014-12-31, 02:41:04,VALID,915.73,VALID,0,VALID,96.2304,VALID,0,VALID,19.9563,VALID,146,VALID,0,
2014-12-31, 02:42:04,VALID,915.747,VALID,0,VALID,96.2075,VALID,0,VALID,19.9773,VALID,146,VALID,0,
2014-12-31, 02:43:04,VALID,915.704,VALID,0,VALID,96.2151,VALID,0,VALID,19.9383,VALID,140,VALID,0,
2014-12-31, 02:44:04,VALID,915.715,VALID,0,VALID,96.1923,VALID,0,VALID,19.8978,VALID,147,VALID,0,
2014-12-31, 02:45:04,VALID,915.712,VALID,0,VALID,96.2075,VALID,0,VALID,19.9188,VALID,147,VALID,0,
2014-12-31, 02:46:04,VALID,915.718,VALID,0,VALID,96.238,VALID,0,VALID,19.8978,VALID,146,VALID,0,
2014-12-31, 02:47:04,VALID,915.738,VALID,0,VALID,96.2533,VALID,0,VALID,19.8993,VALID,138,VALID,0,
2014-12-31, 02:48:05,VALID,915.747,VALID,0,VALID,96.2609,VALID,0,VALID,19.8783,VALID,138,VALID,0,
2014-12-31, 02:49:05,VALID,915.761,VALID,0,VALID,96.2304,VALID,0,VALID,19.8588,VALID,127,VALID,0.0195313,
2014-12-31, 02:50:05,VALID,915.76,VALID,0,VALID,96.2456,VALID,0,VALID,19.8408,VALID,127,VALID,0,
2014-12-31, 02:51:05,VALID,915.782,VALID,0,VALID,96.2609,VALID,0,VALID,19.8198,VALID,122,VALID,0,
2014-12-31, 02:52:05,VALID,915.745,VALID,0,VALID,96.3066,VALID,0,VALID,19.8393,VALID,122,VALID,0,
2014-12-31, 02:53:05,VALID,915.752,VALID,0,VALID,96.3447,VALID,0,VALID,19.7823,VALID,122,VALID,0,
2014-12-31, 02:54:05,VALID,915.746,VALID,0,VALID,96.3676,VALID,0,VALID,19.7628,VALID,122,VALID,0,
2014-12-31, 02:55:05,VALID,915.751,VALID,0,VALID,96.4362,VALID,0,VALID,19.7223,VALID,122,VALID,0,
2014-12-31, 02:56:05,VALID,915.768,VALID,0,VALID,96.5124,VALID,0,VALID,19.6833,VALID,123,VALID,0,
2014-12-31, 02:57:05,VALID,915.785,VALID,0,VALID,96.5963,VALID,0,VALID,19.7433,VALID,123,VALID,0,
2014-12-31, 02:58:05,VALID,915.764,VALID,0,VALID,96.6344,VALID,0,VALID,19.7433,VALID,126,VALID,0,
2014-12-31, 02:59:05,VALID,915.792,VALID,0,VALID,96.6649,VALID,0,VALID,19.7043,VALID,126,VALID,0,
2014-12-31, 03:00:05,VALID,915.784,VALID,0,VALID,96.6954,VALID,0,VALID,19.7433,VALID,125,VALID,0,
2014-12-31, 03:01:05,VALID,915.809,VALID,0,VALID,96.7259,VALID,0,VALID,19.7823,VALID,126,VALID,0,
2014-12-31, 03:02:05,VALID,915.798,VALID,0,VALID,96.764,VALID,0,VALID,19.7028,VALID,125,VALID,0,
2014-12-31, 03:03:05,VALID,915.831,VALID,0,VALID,96.7411,VALID,0,VALID,19.7823,VALID,125,VALID,0,
2014-12-31, 03:04:05,VALID,915.826,VALID,0,VALID,96.764,VALID,0,VALID,19.8018,VALID,125,VALID,0,
2014-12-31, 03:05:05,VALID,915.819,VALID,0,VALID,96.764,VALID,0,VALID,19.7418,VALID,126,VALID,0,
2014-12-31, 03:06:05,VALID,915.838,VALID,0,VALID,96.7411,VALID,0,VALID,19.7628,VALID,126,VALID,0,
2014-12-31, 03:07:05,VALID,915.859,VALID,0,VALID,96.7488,VALID,0,VALID,19.7613,VALID,126,VALID,0,
2014-12-31, 03:08:05,VALID,915.856,VALID,0,VALID,96.7183,VALID,0,VALID,19.8213,VALID,126,VALID,0,
2014-12-31, 03:09:05,VALID,915.836,VALID,0,VALID,96.7183,VALID,0,VALID,19.7223,VALID,126,VALID,0,
2014-12-31, 03:10:05,VALID,915.849,VALID,0,VALID,96.703,VALID,0,VALID,19.7628,VALID,126,VALID,0,
2014-12-31, 03:11:05,VALID,915.867,VALID,0,VALID,96.7259,VALID,0,VALID,19.7433,VALID,126,VALID,0,
2014-12-31, 03:12:05,VALID,915.827,VALID,0,VALID,96.7259,VALID,0,VALID,19.7238,VALID,126,VALID,0,
2014-12-31, 03:13:05,VALID,915.846,VALID,0,VALID,96.7335,VALID,0,VALID,19.7628,VALID,126,VALID,0,
2014-12-31, 03:14:05,VALID,915.81,VALID,0,VALID,96.7411,VALID,0,VALID,19.7238,VALID,126,VALID,0,
2014-12-31, 03:15:05,VALID,915.823,VALID,0,VALID,96.7564,VALID,0,VALID,19.7238,VALID,126,VALID,0,
2014-12-31, 03:16:05,VALID,915.811,VALID,0,VALID,96.7869,VALID,0,VALID,19.7238,VALID,138,VALID,0,
2014-12-31, 03:17:05,VALID,915.803,VALID,0,VALID,96.7945,VALID,0,VALID,19.7238,VALID,138,VALID,0,
2014-12-31, 03:18:05,VALID,915.813,VALID,0,VALID,96.8174,VALID,0,VALID,19.6653,VALID,163,VALID,0,
2014-12-31, 03:19:05,VALID,915.815,VALID,0,VALID,96.7945,VALID,0,VALID,19.6653,VALID,163,VALID,0,
2014-12-31, 03:20:05,VALID,915.77,VALID,0,VALID,96.8403,VALID,0,VALID,19.6653,VALID,163,VALID,0,
2014-12-31, 03:21:05,VALID,915.765,VALID,0,VALID,96.825,VALID,0,VALID,19.6068,VALID,129,VALID,0,
2014-12-31, 03:22:05,VALID,915.759,VALID,0,VALID,96.8174,VALID,0,VALID,19.5873,VALID,124,VALID,0,
2014-12-31, 03:23:05,VALID,915.764,VALID,0,VALID,96.8098,VALID,0,VALID,19.5873,VALID,123,VALID,0,
2014-12-31, 03:24:05,VALID,915.765,VALID,0,VALID,96.825,VALID,0,VALID,19.5468,VALID,123,VALID,0,
2014-12-31, 03:25:05,VALID,915.768,VALID,0,VALID,96.8174,VALID,0,VALID,19.5483,VALID,149,VALID,0,
2014-12-31, 03:26:05,VALID,915.777,VALID,0,VALID,96.8479,VALID,0,VALID,19.5483,VALID,162,VALID,0,
2014-12-31, 03:27:05,VALID,915.779,VALID,0,VALID,96.8707,VALID,0,VALID,19.5873,VALID,166,VALID,0,
2014-12-31, 03:28:05,VALID,915.753,VALID,0,VALID,96.8631,VALID,0,VALID,19.6068,VALID,166,VALID,0.0578125,
2014-12-31, 03:29:05,VALID,915.731,VALID,0,VALID,96.8631,VALID,0,VALID,19.5678,VALID,158,VALID,0,
2014-12-31, 03:30:05,VALID,915.721,VALID,0,VALID,96.8403,VALID,0,VALID,19.5678,VALID,170,VALID,0,
2014-12-31, 03:31:05,VALID,915.699,VALID,0,VALID,96.8326,VALID,0,VALID,19.5873,VALID,163,VALID,0,
2014-12-31, 03:32:05,VALID,915.704,VALID,0,VALID,96.8326,VALID,0,VALID,19.5483,VALID,164,VALID,0,
2014-12-31, 03:33:05,VALID,915.712,VALID,0,VALID,96.8174,VALID,0,VALID,19.6068,VALID,164,VALID,0,
2014-12-31, 03:34:05,VALID,915.736,VALID,0,VALID,96.8174,VALID,0,VALID,19.5663,VALID,164,VALID,0,
2014-12-31, 03:35:05,VALID,915.758,VALID,0,VALID,96.8021,VALID,0,VALID,19.5873,VALID,164,VALID,0,
2014-12-31, 03:36:05,VALID,915.729,VALID,0,VALID,96.7945,VALID,0,VALID,19.5873,VALID,164,VALID,0,
2014-12-31, 03:37:05,VALID,915.746,VALID,0,VALID,96.8174,VALID,0,VALID,19.6068,VALID,164,VALID,0,
2014-12-31, 03:38:05,VALID,915.744,VALID,0,VALID,96.8479,VALID,0,VALID,19.5483,VALID,164,VALID,0,
2014-12-31, 03:39:05,VALID,915.718,VALID,0,VALID,96.8479,VALID,0,VALID,19.5873,VALID,164,VALID,0,
2014-12-31, 03:40:05,VALID,915.738,VALID,0,VALID,96.8784,VALID,0,VALID,19.5288,VALID,164,VALID,0,
2014-12-31, 03:41:05,VALID,915.745,VALID,0,VALID,96.9012,VALID,0,VALID,19.5093,VALID,164,VALID,0,
2014-12-31, 03:42:05,VALID,915.782,VALID,0,VALID,96.9089,VALID,0,VALID,19.5303,VALID,164,VALID,0,
2014-12-31, 03:43:05,VALID,915.753,VALID,0,VALID,96.947,VALID,0,VALID,19.5093,VALID,164,VALID,0,
2014-12-31, 03:44:05,VALID,915.727,VALID,0,VALID,96.9394,VALID,0,VALID,19.5078,VALID,164,VALID,0,
2014-12-31, 03:45:05,VALID,915.705,VALID,0,VALID,96.947,VALID,0,VALID,19.4508,VALID,164,VALID,0,
2014-12-31, 03:46:05,VALID,915.68,VALID,0,VALID,96.9622,VALID,0,VALID,19.4508,VALID,164,VALID,0,
2014-12-31, 03:47:05,VALID,915.652,VALID,0,VALID,96.9622,VALID,0,VALID,19.4313,VALID,151,VALID,0,
2014-12-31, 03:48:05,VALID,915.677,VALID,0,VALID,96.947,VALID,0,VALID,19.4313,VALID,150,VALID,0,
2014-12-31, 03:49:05,VALID,915.639,VALID,0,VALID,96.9089,VALID,0,VALID,19.3937,VALID,150,VALID,0,
2014-12-31, 03:50:05,VALID,915.619,VALID,0,VALID,96.8707,VALID,0,VALID,19.3923,VALID,153,VALID,0,
2014-12-31, 03:51:05,VALID,915.646,VALID,0,VALID,96.8707,VALID,0,VALID,19.3923,VALID,155,VALID,0,
2014-12-31, 03:52:05,VALID,915.621,VALID,0,VALID,96.8403,VALID,0,VALID,19.3338,VALID,153,VALID,0,
2014-12-31, 03:53:05,VALID,915.598,VALID,0,VALID,96.8326,VALID,0,VALID,19.3533,VALID,150,VALID,0,
2014-12-31, 03:54:05,VALID,915.583,VALID,0,VALID,96.8098,VALID,0,VALID,19.2948,VALID,155,VALID,0,
2014-12-31, 03:55:05,VALID,915.584,VALID,0,VALID,96.8098,VALID,0,VALID,19.2948,VALID,168,VALID,0,
2014-12-31, 03:56:05,VALID,915.641,VALID,0,VALID,96.7869,VALID,0,VALID,19.2948,VALID,168,VALID,0,
2014-12-31, 03:57:05,VALID,915.659,VALID,0,VALID,96.7793,VALID,0,VALID,19.2753,VALID,168,VALID,0,
2014-12-31, 03:58:05,VALID,915.728,VALID,0,VALID,96.7869,VALID,0,VALID,19.3533,VALID,178,VALID,0,
2014-12-31, 03:59:05,VALID,915.741,VALID,0,VALID,96.7869,VALID,0,VALID,19.2753,VALID,183,VALID,0,
2014-12-31, 04:00:05,VALID,915.784,VALID,0,VALID,96.7793,VALID,0,VALID,19.3143,VALID,184,VALID,0,